Tracking 19720 objects as of 26-Jun-2019
HD Live streaming from Space Station
objects crossing your sky now

ARIANE 5 R/B

Track ARIANE 5 R/B now!


NORAD ID: 27946
Int'l Code: 2003-043B
Perigee: 615.3 km
Apogee: 36,064.9 km
Inclination: 7.3 °
Period: 644.3 minutes
Semi major axis: 24711 km
RCS: 26.85 m2 (large)
Launch date: September 27, 2003
Source: France (FR)
Launch site: FRENCH GUIANA (FRGUI)

Note: This is a ROCKET BODY
aabbcc
Your satellite tracking list
Your tracking list is empty




NASA's NSSDC Master Catalog

Two Line Element Set (TLE):
1 27946U 03043B   19176.89481906 -.00000134  00000-0 -40404-3 0  9992
2 27946   7.2987 196.9390 7172802  44.3574 354.5676  2.23493103128581
Source of the keplerian elements: AFSPC